Regional Weather Roundup
Issued by NWS

Home | Current Version | Previous Version | Graphics & Text | Print | Product List | Glossary On
Versions: 1 2 3 4 5 6 7 8 9 10 11 12 13 14 15 16 17 18 19 20 21 22 23 24 25 26 27 28 29 30 31 32 33 34 35 36 37 38 39 40 41 42 43 44 45 46 47 48 49 50
000
ASUS45 KCYS 041510
RWRWY

WYOMING REGIONAL WEATHER ROUNDUP
NATIONAL WEATHER SERVICE CHEYENNE WY
900 AM MDT FRI SEP 04 2015

NOTE:  "FAIR" INDICATES FEW OR NO CLOUDS BELOW 12,000 FEET
WITH NO SIGNIFICANT WEATHER AND/OR OBSTRUCTIONS TO VISIBILITY.

WYZ001-041600-
YELLOWSTONE NATIONAL PARK

CITY           SKY/WX    TMP DP  RH WIND       PRES   REMARKS
LK YELLOWSTONE   N/A     54  45  71 CALM      30.04F
W YELLOWSTONE  NOT AVBL

$$
WYZ002>013-054>058-071-098>099-041600-
NORTHERN WYOMING

CITY           SKY/WX    TMP DP  RH WIND       PRES   REMARKS
JACKSON        FAIR      54  45  71 CALM      29.98S
CODY           FAIR      52  45  76 NE9       29.97S
GREYBULL       FAIR      60  45  57 NW9       29.92F
WORLAND        FAIR      60  46  59 VRB7      29.93S
SHERIDAN       FAIR      62  43  49 NW8       29.95S
BUFFALO        FAIR      61  45  55 N10       29.98S
GILLETTE       FAIR      65  50  58 N10       29.93S
HULETT         FAIR      66  50  55 SW5       29.91R
NEWCASTLE      FAIR      70  41  35 NW5       29.90S

$$
WYZ014>020-022>026-101>103-041600-
CENTRAL WYOMING

CITY           SKY/WX    TMP DP  RH WIND       PRES   REMARKS
BIG PINEY      FAIR      54  35  48 CALM      30.08R
PINEDALE       FAIR      63  32  31 S8        30.08S
DUBOIS         FAIR      52  34  50 N3        30.04S
LANDER         FAIR      64  40  41 NW6       29.94R
RIVERTON       FAIR      65  42  43 VRB3      29.96R
CASPER         FAIR      72  43  35 SW10      29.98R
DOUGLAS        FAIR      65  51  60 CALM      29.96S

$$
WYZ021-027>030-104>119-041600-
SOUTHERN WYOMING

CITY           SKY/WX    TMP DP  RH WIND       PRES   REMARKS
EVANSTON       FAIR      66  31  27 S18       30.05S
KEMMERER       FAIR      59  30  33 S7        30.08S
FORT BRIDGER   SUNNY     68  30  24 SW14G21   30.10S
ROCK SPRINGS   FAIR      64  38  38 NE5       30.08R
DIXON          FAIR      61  47  59 CALM      30.13S
RAWLINS        FAIR      68  40  35 S16       30.08S
SARATOGA       FAIR      63  45  51 S10       30.13F
LARAMIE        FAIR      62  46  55 VRB5      30.14R
CHEYENNE       FAIR      72  45  37 SW8       30.06R
TORRINGTON     FAIR      67  49  52 CALM      29.91S
PINE BLUFFS    FAIR      70  45  40 W5        30.00F

$$



USA.gov is the U.S. government's official web portal to all federal, state and local government web resources and services.